Gastonia, NC

7:09 AM EDT on July 25, 2017 (GMT -0400)
Gastonia Municipal

Weather History for KAKH - February, 2013

Change the Weather History Date:

Sunday, February 17, 2013

  Actual Average (KCLT) Record (KCLT)
Temperature  
Mean Temperature 30 °F -  
Max Temperature 42 °F 54 °F 79 °F (1927)
Min Temperature 17 °F 34 °F 7 °F (1958)
Degree Days  
Heating Degree Days 36    
Moisture  
Dew Point 15 °F    
Average Humidity 60    
Maximum Humidity 92    
Minimum Humidity 27    
Precipitation  
Precipitation 0.04 in - - ()
Sea Level Pressure  
Sea Level Pressure 30.16 in    
Wind  
Wind Speed 3 mph (WSW)    
Max Wind Speed 8 mph    
Max Gust Speed -    
Visibility 10 miles    
Events      
Averages and records for this station are not official NWS values.
T = Trace of Precipitation, MM = Missing Value Source: NWS Daily Summary

Daily Weather History Graph

Daily Weather History Graph

Search for Another Location

Airport or City:

Trip Planner

Search our weather history database for the weather conditions in past years. The results will help you decide how hot, cold, wet, or windy it might be!

Date:

Astronomy

Feb. 17, 2013 Rise Set
Actual Time 7:08 AM EST 6:09 PM EST
Civil Twilight 6:42 AM EST 6:35 PM EST
Nautical Twilight 6:12 AM EST 7:04 PM EST
Astronomical Twilight 5:43 AM EST 7:34 PM EST
Moon 11:17 AM EST (2/17) 12:46 AM EST (2/17)
Length of Visible Light 11h 52m
Length of Day
11h 00m
Waxing Crescent, 49% of the Moon is Illuminated
Feb 17
Waxing Crescent
Feb 17
First Quarter
Feb 25
Full
Mar 4
Last Quarter
Mar 11
New

Hourly Weather History & Observations

Time (EST) Temp. Windchill Dew Point Humidity Pressure Visibility Wind Dir Wind Speed Gust Speed Precip Events Conditions
12:54 AM 26.1 °F 20.5 °F 18.0 °F 71% 30.04 in 10.0 mi WNW 4.6 mph - N/A   Clear
1:54 AM 24.1 °F - 18.0 °F 77% 30.04 in 10.0 mi Calm Calm - N/A   Clear
2:54 AM 19.9 °F - 18.0 °F 92% 30.05 in 10.0 mi Calm Calm - N/A   Clear
3:54 AM 21.0 °F - 18.0 °F 88% 30.06 in 10.0 mi Calm Calm - N/A   Clear
4:54 AM 19.0 °F 13.9 °F 16.0 °F 88% 30.08 in 10.0 mi WSW 3.5 mph - N/A   Clear
5:54 AM 18.0 °F - 15.1 °F 88% 30.11 in 10.0 mi Calm Calm - N/A   Clear
6:54 AM 17.1 °F - 14.0 °F 88% 30.13 in 10.0 mi Calm Calm - N/A   Clear
7:54 AM 19.0 °F - 16.0 °F 88% 30.15 in 10.0 mi Calm Calm - N/A   Clear
8:54 AM 24.1 °F 18.2 °F 17.1 °F 75% 30.17 in 10.0 mi SW 4.6 mph - N/A   Clear
9:54 AM 28.0 °F 24.2 °F 19.9 °F 72% 30.18 in 10.0 mi Variable 3.5 mph - 0.01 in   Clear
10:54 AM 30.0 °F 24.1 °F 19.0 °F 64% 30.18 in 10.0 mi SSW 5.8 mph - N/A   Clear
11:54 AM 33.1 °F 28.7 °F 16.0 °F 50% 30.19 in 10.0 mi Variable 4.6 mph - 0.01 in   Clear
12:54 PM 34.0 °F 27.2 °F 19.9 °F 56% 30.17 in 10.0 mi South 8.1 mph - 0.02 in   Clear
1:54 PM 37.0 °F 31.6 °F 12.0 °F 36% 30.15 in 10.0 mi SW 6.9 mph - N/A   Clear
2:54 PM 39.9 °F 34.5 °F 14.0 °F 35% 30.14 in 10.0 mi NW 8.1 mph - N/A   Clear
3:54 PM 42.1 °F - 12.0 °F 29% 30.15 in 10.0 mi Calm Calm - N/A   Clear
4:54 PM 42.1 °F 38.4 °F 10.0 °F 27% 30.16 in 10.0 mi Variable 5.8 mph - N/A   Clear
5:54 PM 39.0 °F 35.7 °F 10.0 °F 30% 30.18 in 10.0 mi WSW 4.6 mph - N/A   Clear
7:54 PM 35.1 °F 32.2 °F 12.0 °F 39% 30.23 in 10.0 mi WNW 3.5 mph - N/A   Clear
8:54 PM 32.0 °F 28.7 °F 15.1 °F 50% 30.24 in 10.0 mi West 3.5 mph - N/A   Clear
9:54 PM 34.0 °F - 10.0 °F 37% 30.25 in 10.0 mi Calm Calm - N/A   Clear
10:54 PM 28.9 °F 25.2 °F 17.1 °F 61% 30.28 in 10.0 mi Variable 3.5 mph - N/A   Clear
11:54 PM 30.9 °F - 12.9 °F 47% 30.27 in 10.0 mi Calm Calm - N/A   Clear